Time,TemperatureF,DewpointF,PressureIn,WindDirection,WindDirectionDegrees,WindSpeedMPH,WindSpeedGustMPH,Humidity,HourlyPrecipIn,Conditions,Clouds,dailyrainin,SoftwareType,DateUTC
2013-04-28 00:01:00,55.6,45.2,30.23,NNW,334,0.0,0.0,68,0.00,,,0.00,VWS V14.00,2013-04-28 04:01:00,
2013-04-28 00:02:00,55.6,45.2,30.23,NNW,334,0.0,0.0,68,0.00,,,0.00,VWS V14.00,2013-04-28 04:02:00,
2013-04-28 00:07:00,55.6,45.6,30.23,NNW,334,0.0,0.0,69,0.00,,,0.00,VWS V14.00,2013-04-28 04:07:00,
2013-04-28 00:12:00,55.6,45.6,30.23,NNW,334,0.0,0.0,69,0.00,,,0.00,VWS V14.00,2013-04-28 04:12:00,
2013-04-28 00:17:00,55.6,45.6,30.23,NNW,334,0.0,0.0,69,0.00,,,0.00,VWS V14.00,2013-04-28 04:17:00,
2013-04-28 00:22:00,55.6,45.6,30.23,NNW,334,0.0,0.0,69,0.00,,,0.00,VWS V14.00,2013-04-28 04:22:00,
2013-04-28 00:27:00,55.6,45.6,30.23,NNW,334,0.0,0.0,69,0.00,,,0.00,VWS V14.00,2013-04-28 04:27:00,
2013-04-28 00:32:00,55.4,45.4,30.23,NNW,334,0.0,0.0,69,0.00,,,0.00,VWS V14.00,2013-04-28 04:32:00,
2013-04-28 00:37:00,55.4,45.4,30.23,NNW,334,0.0,0.0,69,0.00,,,0.00,VWS V14.00,2013-04-28 04:37:00,
2013-04-28 00:42:00,55.4,45.4,30.23,NNW,334,0.0,0.0,69,0.00,,,0.00,VWS V14.00,2013-04-28 04:42:00,
2013-04-28 00:47:00,55.2,45.2,30.23,NNW,334,0.0,0.0,69,0.00,,,0.00,VWS V14.00,2013-04-28 04:47:00,
2013-04-28 00:52:00,55.2,45.6,30.23,NNW,334,0.0,0.0,70,0.00,,,0.00,VWS V14.00,2013-04-28 04:52:00,
2013-04-28 00:57:00,55.2,45.6,30.23,NNW,334,0.0,0.0,70,0.00,,,0.00,VWS V14.00,2013-04-28 04:57:00,
2013-04-28 01:02:00,55.2,45.6,30.23,NNW,334,0.0,0.0,70,0.00,,,0.00,VWS V14.00,2013-04-28 05:02:00,
2013-04-28 01:07:00,55.2,45.6,30.23,NNW,334,0.0,0.0,70,0.00,,,0.00,VWS V14.00,2013-04-28 05:07:00,
2013-04-28 01:12:00,55.2,45.6,30.23,NNW,334,0.0,0.0,70,0.00,,,0.00,VWS V14.00,2013-04-28 05:12:00,
2013-04-28 01:17:00,55.2,45.6,30.23,NNW,334,0.0,0.0,70,0.00,,,0.00,VWS V14.00,2013-04-28 05:17:00,
2013-04-28 01:22:00,55.2,45.6,30.23,NNW,334,0.0,0.0,70,0.00,,,0.00,VWS V14.00,2013-04-28 05:22:00,
2013-04-28 01:27:00,55.2,45.6,30.23,NNW,334,0.0,0.0,70,0.00,,,0.00,VWS V14.00,2013-04-28 05:27:00,
2013-04-28 01:32:00,55.0,45.5,30.23,NNW,334,0.0,0.0,70,0.00,,,0.00,VWS V14.00,2013-04-28 05:32:00,
2013-04-28 01:37:00,55.0,45.5,30.23,NNW,334,0.0,0.0,70,0.00,,,0.00,VWS V14.00,2013-04-28 05:37:00,
2013-04-28 01:42:00,55.0,45.5,30.23,NNW,334,0.0,0.0,70,0.00,,,0.00,VWS V14.00,2013-04-28 05:42:00,
2013-04-28 01:48:00,55.0,45.5,30.23,NNW,334,0.0,0.0,70,0.00,,,0.00,VWS V14.00,2013-04-28 05:48:00,
2013-04-28 01:53:00,55.0,45.5,30.23,NNW,334,0.0,0.0,70,0.00,,,0.00,VWS V14.00,2013-04-28 05:53:00,
2013-04-28 01:58:00,54.9,44.9,30.23,NNW,334,0.0,0.0,69,0.00,,,0.00,VWS V14.00,2013-04-28 05:58:00,
2013-04-28 02:03:00,54.7,45.1,30.23,NNW,334,0.0,0.0,70,0.00,,,0.00,VWS V14.00,2013-04-28 06:03:00,
2013-04-28 02:08:00,54.7,45.1,30.23,NNW,334,0.0,0.0,70,0.00,,,0.00,VWS V14.00,2013-04-28 06:08:00,
2013-04-28 02:13:00,54.5,44.9,30.23,NNW,334,0.0,0.0,70,0.00,,,0.00,VWS V14.00,2013-04-28 06:13:00,
2013-04-28 02:18:00,54.5,44.9,30.23,NNW,334,0.0,0.0,70,0.00,,,0.00,VWS V14.00,2013-04-28 06:18:00,
2013-04-28 02:23:00,54.5,44.9,30.20,NNW,334,0.0,0.0,70,0.00,,,0.00,VWS V14.00,2013-04-28 06:23:00,
2013-04-28 02:28:00,54.5,45.3,30.20,NNW,334,0.0,0.0,71,0.00,,,0.00,VWS V14.00,2013-04-28 06:28:00,
2013-04-28 02:33:00,54.5,45.3,30.20,NNW,334,0.0,0.0,71,0.00,,,0.00,VWS V14.00,2013-04-28 06:33:00,
2013-04-28 02:38:00,54.3,45.1,30.20,NNW,334,0.0,0.0,71,0.00,,,0.00,VWS V14.00,2013-04-28 06:38:00,
2013-04-28 02:43:00,54.3,45.1,30.20,NNW,334,0.0,0.0,71,0.00,,,0.00,VWS V14.00,2013-04-28 06:43:00,
2013-04-28 02:48:00,54.5,45.3,30.20,NNW,334,0.0,0.0,71,0.00,,,0.00,VWS V14.00,2013-04-28 06:48:00,
2013-04-28 02:53:00,54.5,45.7,30.20,NNW,334,0.0,0.0,72,0.00,,,0.00,VWS V14.00,2013-04-28 06:53:00,
2013-04-28 02:58:00,54.5,45.7,30.20,NNW,334,0.0,0.0,72,0.00,,,0.00,VWS V14.00,2013-04-28 06:58:00,
2013-04-28 03:03:00,54.7,45.8,30.20,NNW,334,0.0,0.0,72,0.00,,,0.00,VWS V14.00,2013-04-28 07:03:00,
2013-04-28 03:08:00,54.7,45.8,30.20,NNW,334,0.0,0.0,72,0.00,,,0.00,VWS V14.00,2013-04-28 07:08:00,
2013-04-28 03:13:00,54.5,45.7,30.20,NNW,334,0.0,0.0,72,0.00,,,0.00,VWS V14.00,2013-04-28 07:13:00,
2013-04-28 03:18:00,54.5,45.7,30.20,NNW,334,0.0,0.0,72,0.00,,,0.00,VWS V14.00,2013-04-28 07:18:00,
2013-04-28 03:23:00,54.5,45.7,30.20,NNW,334,0.0,0.0,72,0.00,,,0.00,VWS V14.00,2013-04-28 07:23:00,
2013-04-28 03:28:00,54.5,45.7,30.20,NNW,334,0.0,0.0,72,0.00,,,0.00,VWS V14.00,2013-04-28 07:28:00,
2013-04-28 03:33:00,54.5,45.7,30.20,NNW,334,0.0,0.0,72,0.00,,,0.00,VWS V14.00,2013-04-28 07:33:00,
2013-04-28 03:38:00,54.5,45.7,30.20,NNW,334,0.0,0.0,72,0.00,,,0.00,VWS V14.00,2013-04-28 07:38:00,
2013-04-28 03:43:00,54.7,45.8,30.20,NNW,334,0.0,0.0,72,0.00,,,0.00,VWS V14.00,2013-04-28 07:43:00,
2013-04-28 03:48:00,54.7,45.8,30.20,NNW,334,0.0,0.0,72,0.00,,,0.00,VWS V14.00,2013-04-28 07:48:00,
2013-04-28 03:53:00,54.7,45.8,30.20,NNW,341,0.0,0.0,72,0.00,,,0.00,VWS V14.00,2013-04-28 07:53:00,
2013-04-28 03:59:00,54.9,46.0,30.20,NNW,341,0.0,0.0,72,0.00,,,0.00,VWS V14.00,2013-04-28 07:59:00,
2013-04-28 04:04:00,54.9,46.0,30.20,NNW,341,0.0,0.0,72,0.00,,,0.00,VWS V14.00,2013-04-28 08:04:00,
2013-04-28 04:09:00,54.9,46.0,30.20,NNW,341,0.0,0.0,72,0.00,,,0.00,VWS V14.00,2013-04-28 08:09:00,
2013-04-28 04:14:00,54.9,46.0,30.20,NNW,341,0.0,0.0,72,0.00,,,0.00,VWS V14.00,2013-04-28 08:14:00,
2013-04-28 04:19:00,54.7,45.8,30.20,NNW,341,0.0,0.0,72,0.00,,,0.00,VWS V14.00,2013-04-28 08:19:00,
2013-04-28 04:24:00,54.7,45.8,30.20,NNW,341,0.0,0.0,72,0.00,,,0.00,VWS V14.00,2013-04-28 08:24:00,
2013-04-28 04:29:00,54.7,45.8,30.20,NNW,341,0.0,0.0,72,0.00,,,0.00,VWS V14.00,2013-04-28 08:29:00,
2013-04-28 04:34:00,54.5,45.3,30.20,NNW,341,0.0,0.0,71,0.00,,,0.00,VWS V14.00,2013-04-28 08:34:00,
2013-04-28 04:39:00,54.5,45.3,30.20,NNW,341,0.0,0.0,71,0.00,,,0.00,VWS V14.00,2013-04-28 08:39:00,
2013-04-28 04:44:00,54.5,45.3,30.20,NNW,341,0.0,0.0,71,0.00,,,0.00,VWS V14.00,2013-04-28 08:44:00,
2013-04-28 04:49:00,54.5,45.3,30.20,NNW,341,0.0,0.0,71,0.00,,,0.00,VWS V14.00,2013-04-28 08:49:00,
2013-04-28 04:54:00,54.5,45.7,30.20,NNW,341,0.0,0.0,72,0.00,,,0.00,VWS V14.00,2013-04-28 08:54:00,
2013-04-28 04:59:00,54.5,45.7,30.20,NNW,341,0.0,0.0,72,0.00,,,0.00,VWS V14.00,2013-04-28 08:59:00,
2013-04-28 05:04:00,54.3,45.5,30.20,NNW,341,0.0,0.0,72,0.00,,,0.00,VWS V14.00,2013-04-28 09:04:00,
2013-04-28 05:09:00,54.3,45.5,30.20,NNW,341,0.0,0.0,72,0.00,,,0.00,VWS V14.00,2013-04-28 09:09:00,
2013-04-28 05:14:00,54.3,45.5,30.20,NNW,341,0.0,0.0,72,0.00,,,0.00,VWS V14.00,2013-04-28 09:14:00,
2013-04-28 05:19:00,54.3,45.5,30.20,NNW,341,0.0,0.0,72,0.00,,,0.00,VWS V14.00,2013-04-28 09:19:00,
2013-04-28 05:24:00,54.3,45.5,30.20,NNW,341,0.0,0.0,72,0.00,,,0.00,VWS V14.00,2013-04-28 09:24:00,
2013-04-28 05:29:00,54.1,45.3,30.20,NNW,341,0.0,0.0,72,0.00,,,0.00,VWS V14.00,2013-04-28 09:29:00,
2013-04-28 05:34:00,54.1,45.3,30.20,NNW,341,0.0,0.0,72,0.00,,,0.00,VWS V14.00,2013-04-28 09:34:00,
2013-04-28 05:39:00,54.1,45.7,30.20,NNW,341,0.0,0.0,73,0.00,,,0.00,VWS V14.00,2013-04-28 09:39:00,
2013-04-28 05:44:00,54.1,45.7,30.20,NNW,341,0.0,0.0,73,0.00,,,0.00,VWS V14.00,2013-04-28 09:44:00,
2013-04-28 05:49:00,54.1,45.7,30.20,NNW,341,0.0,0.0,73,0.00,,,0.00,VWS V14.00,2013-04-28 09:49:00,
2013-04-28 05:55:00,54.1,45.7,30.20,NNW,341,0.0,0.0,73,0.00,,,0.00,VWS V14.00,2013-04-28 09:55:00,
2013-04-28 06:00:00,54.0,45.5,30.20,NNW,341,0.0,0.0,73,0.00,,,0.00,VWS V14.00,2013-04-28 10:00:00,
2013-04-28 06:05:00,54.0,45.5,30.20,NNW,341,0.0,0.0,73,0.00,,,0.00,VWS V14.00,2013-04-28 10:05:00,
2013-04-28 06:10:00,54.1,46.0,30.20,NNW,341,0.0,0.0,74,0.00,,,0.00,VWS V14.00,2013-04-28 10:10:00,
2013-04-28 06:15:00,54.1,46.0,30.20,NNW,341,0.0,0.0,74,0.00,,,0.00,VWS V14.00,2013-04-28 10:15:00,
2013-04-28 06:20:00,54.1,45.7,30.20,NNW,341,0.0,0.0,73,0.00,,,0.00,VWS V14.00,2013-04-28 10:20:00,
2013-04-28 06:25:00,54.1,45.7,30.20,NNW,341,0.0,0.0,73,0.00,,,0.00,VWS V14.00,2013-04-28 10:25:00,
2013-04-28 06:30:00,54.1,46.0,30.20,NNW,341,0.0,0.0,74,0.00,,,0.00,VWS V14.00,2013-04-28 10:30:00,
2013-04-28 06:35:00,54.0,45.5,30.20,NNW,341,0.0,0.0,73,0.00,,,0.00,VWS V14.00,2013-04-28 10:35:00,
2013-04-28 06:40:00,54.0,45.9,30.20,NNW,341,0.0,0.0,74,0.04,,,0.04,VWS V14.00,2013-04-28 10:40:00,
2013-04-28 06:45:00,54.1,46.0,30.20,NNW,341,0.0,0.0,74,0.04,,,0.04,VWS V14.00,2013-04-28 10:45:00,
2013-04-28 06:50:00,54.1,46.0,30.20,NNW,341,0.0,0.0,74,0.04,,,0.04,VWS V14.00,2013-04-28 10:50:00,
2013-04-28 06:55:00,54.1,46.0,30.20,NNW,341,0.0,0.0,74,0.04,,,0.04,VWS V14.00,2013-04-28 10:55:00,
2013-04-28 07:00:00,54.1,46.0,30.20,NNW,341,0.0,0.0,74,0.04,,,0.04,VWS V14.00,2013-04-28 11:00:00,
2013-04-28 07:05:00,54.1,46.0,30.20,NNW,343,0.0,0.0,74,0.04,,,0.04,VWS V14.00,2013-04-28 11:05:00,
2013-04-28 07:10:00,54.3,46.2,30.20,NNW,342,0.0,0.0,74,0.04,,,0.04,VWS V14.00,2013-04-28 11:10:00,
2013-04-28 07:15:00,54.1,46.0,30.20,NNW,342,0.0,0.0,74,0.04,,,0.04,VWS V14.00,2013-04-28 11:15:00,
2013-04-28 07:20:00,54.1,46.0,30.20,NNW,342,0.0,0.0,74,0.04,,,0.04,VWS V14.00,2013-04-28 11:20:00,
2013-04-28 07:25:00,54.1,46.0,30.20,NNW,342,0.0,0.0,74,0.04,,,0.04,VWS V14.00,2013-04-28 11:25:00,
2013-04-28 07:30:00,54.1,45.7,30.20,NNW,342,0.0,0.0,73,0.04,,,0.04,VWS V14.00,2013-04-28 11:30:00,
2013-04-28 07:35:00,54.1,45.7,30.20,NNW,342,0.0,0.0,73,0.04,,,0.04,VWS V14.00,2013-04-28 11:35:00,
2013-04-28 07:40:00,54.0,45.5,30.20,NNW,342,0.0,0.0,73,0.00,,,0.04,VWS V14.00,2013-04-28 11:40:00,
2013-04-28 07:45:00,54.1,46.0,30.20,NNW,342,0.0,0.0,74,0.00,,,0.04,VWS V14.00,2013-04-28 11:45:00,
2013-04-28 07:50:00,54.1,46.0,30.20,NNW,342,0.0,0.0,74,0.00,,,0.04,VWS V14.00,2013-04-28 11:50:00,
2013-04-28 07:55:00,54.3,46.2,30.20,NNW,341,0.0,0.0,74,0.00,,,0.04,VWS V14.00,2013-04-28 11:55:00,
2013-04-28 08:00:00,54.5,46.4,30.20,NNW,341,0.0,0.0,74,0.00,,,0.04,VWS V14.00,2013-04-28 12:00:00,
2013-04-28 08:05:00,54.7,46.6,30.20,NNW,341,0.0,0.0,74,0.00,,,0.04,VWS V14.00,2013-04-28 12:05:00,
2013-04-28 08:10:00,54.9,46.7,30.20,NNW,345,0.0,0.0,74,0.00,,,0.04,VWS V14.00,2013-04-28 12:10:00,
2013-04-28 08:15:00,55.0,46.5,30.20,NNW,345,0.0,0.0,73,0.00,,,0.04,VWS V14.00,2013-04-28 12:15:00,
2013-04-28 08:20:00,55.0,46.5,30.20,NNW,345,0.0,0.0,73,0.00,,,0.04,VWS V14.00,2013-04-28 12:20:00,
2013-04-28 08:25:00,55.0,46.5,30.20,NNW,345,0.0,0.0,73,0.00,,,0.04,VWS V14.00,2013-04-28 12:25:00,
2013-04-28 08:30:00,54.9,46.4,30.20,NNW,345,0.0,0.0,73,0.00,,,0.04,VWS V14.00,2013-04-28 12:30:00,
2013-04-28 08:35:00,54.7,45.8,30.23,NNW,345,0.0,0.0,72,0.00,,,0.04,VWS V14.00,2013-04-28 12:35:00,
2013-04-28 08:41:00,54.7,45.8,30.23,NNW,345,0.0,0.0,72,0.00,,,0.04,VWS V14.00,2013-04-28 12:41:00,
2013-04-28 08:46:00,54.7,45.8,30.23,NNW,345,0.0,0.0,72,0.00,,,0.04,VWS V14.00,2013-04-28 12:46:00,
2013-04-28 08:51:00,54.7,45.8,30.23,NNW,345,0.0,0.0,72,0.00,,,0.04,VWS V14.00,2013-04-28 12:51:00,
2013-04-28 08:56:00,54.7,45.8,30.23,NNW,345,0.0,0.0,72,0.00,,,0.04,VWS V14.00,2013-04-28 12:56:00,
2013-04-28 09:01:00,54.7,45.8,30.23,NNW,345,0.0,0.0,72,0.00,,,0.04,VWS V14.00,2013-04-28 13:01:00,
2013-04-28 09:06:00,54.7,45.8,30.20,NNW,345,0.0,0.0,72,0.00,,,0.04,VWS V14.00,2013-04-28 13:06:00,
2013-04-28 09:11:00,54.9,46.0,30.20,NNW,345,0.0,0.0,72,0.00,,,0.04,VWS V14.00,2013-04-28 13:11:00,
2013-04-28 09:16:00,54.9,45.7,30.20,NNW,345,0.0,0.0,71,0.00,,,0.04,VWS V14.00,2013-04-28 13:16:00,
2013-04-28 09:21:00,54.9,45.7,30.23,NNW,345,0.0,0.0,71,0.00,,,0.04,VWS V14.00,2013-04-28 13:21:00,
2013-04-28 09:26:00,55.2,46.0,30.23,NNW,345,0.0,0.0,71,0.00,,,0.04,VWS V14.00,2013-04-28 13:26:00,
2013-04-28 09:31:00,55.4,46.2,30.23,NNW,345,0.0,0.0,71,0.00,,,0.04,VWS V14.00,2013-04-28 13:31:00,
2013-04-28 09:36:00,55.4,45.8,30.23,South,170,0.0,0.0,70,0.00,,,0.04,VWS V14.00,2013-04-28 13:36:00,
2013-04-28 09:41:00,55.4,45.8,30.23,South,170,0.0,0.0,70,0.00,,,0.04,VWS V14.00,2013-04-28 13:41:00,
2013-04-28 09:46:00,55.2,45.6,30.23,South,170,0.0,0.0,70,0.00,,,0.04,VWS V14.00,2013-04-28 13:46:00,
2013-04-28 09:51:00,55.2,45.6,30.23,South,170,0.0,0.0,70,0.00,,,0.04,VWS V14.00,2013-04-28 13:51:00,
2013-04-28 09:56:00,55.4,45.8,30.23,South,170,0.0,0.0,70,0.00,,,0.04,VWS V14.00,2013-04-28 13:56:00,
2013-04-28 10:01:00,55.4,45.8,30.23,South,170,0.0,0.0,70,0.00,,,0.04,VWS V14.00,2013-04-28 14:01:00,
2013-04-28 10:06:00,55.4,45.4,30.23,South,170,0.0,0.0,69,0.00,,,0.04,VWS V14.00,2013-04-28 14:06:00,
2013-04-28 10:11:00,55.4,45.4,30.23,South,170,0.0,0.0,69,0.00,,,0.04,VWS V14.00,2013-04-28 14:11:00,
2013-04-28 10:16:00,55.4,45.4,30.23,South,176,0.0,0.0,69,0.00,,,0.04,VWS V14.00,2013-04-28 14:16:00,
2013-04-28 10:21:00,55.6,45.6,30.23,South,176,0.0,0.0,69,0.00,,,0.04,VWS V14.00,2013-04-28 14:21:00,
2013-04-28 10:26:00,55.6,45.6,30.23,South,176,0.0,0.0,69,0.00,,,0.04,VWS V14.00,2013-04-28 14:26:00,
2013-04-28 10:31:00,55.8,45.8,30.23,South,176,0.0,0.0,69,0.00,,,0.04,VWS V14.00,2013-04-28 14:31:00,
2013-04-28 10:36:00,55.8,45.8,30.23,South,176,0.0,0.0,69,0.00,,,0.04,VWS V14.00,2013-04-28 14:36:00,
2013-04-28 10:41:00,55.6,45.2,30.23,South,176,0.0,0.0,68,0.00,,,0.04,VWS V14.00,2013-04-28 14:41:00,
2013-04-28 10:46:00,55.6,45.6,30.23,South,176,0.0,0.0,69,0.00,,,0.04,VWS V14.00,2013-04-28 14:46:00,
2013-04-28 10:51:00,55.8,45.8,30.20,South,176,0.0,0.0,69,0.00,,,0.04,VWS V14.00,2013-04-28 14:51:00,
2013-04-28 10:56:00,55.8,45.8,30.20,South,176,0.0,0.0,69,0.00,,,0.04,VWS V14.00,2013-04-28 14:56:00,
2013-04-28 11:01:00,55.8,45.8,30.20,South,176,0.0,0.0,69,0.00,,,0.04,VWS V14.00,2013-04-28 15:01:00,
2013-04-28 11:06:00,55.8,45.4,30.20,South,176,0.0,0.0,68,0.00,,,0.04,VWS V14.00,2013-04-28 15:06:00,
2013-04-28 11:11:00,55.8,45.4,30.20,South,176,0.0,0.0,68,0.00,,,0.04,VWS V14.00,2013-04-28 15:11:00,
2013-04-28 11:16:00,55.8,45.4,30.20,South,176,0.0,0.0,68,0.00,,,0.04,VWS V14.00,2013-04-28 15:16:00,
2013-04-28 11:22:00,55.8,45.4,30.23,South,176,0.0,0.0,68,0.00,,,0.04,VWS V14.00,2013-04-28 15:22:00,
2013-04-28 11:27:00,55.9,45.5,30.23,South,176,0.0,0.0,68,0.00,,,0.04,VWS V14.00,2013-04-28 15:27:00,
2013-04-28 11:32:00,55.9,45.9,30.23,South,176,0.0,0.0,69,0.00,,,0.04,VWS V14.00,2013-04-28 15:32:00,
2013-04-28 11:37:00,55.9,45.9,30.23,South,176,0.0,0.0,69,0.00,,,0.04,VWS V14.00,2013-04-28 15:37:00,
2013-04-28 11:42:00,56.1,46.1,30.23,South,176,0.0,0.0,69,0.00,,,0.04,VWS V14.00,2013-04-28 15:42:00,
2013-04-28 11:47:00,56.1,46.1,30.23,South,176,0.0,0.0,69,0.00,,,0.04,VWS V14.00,2013-04-28 15:47:00,
2013-04-28 11:52:00,56.1,46.1,30.23,South,176,0.0,0.0,69,0.00,,,0.04,VWS V14.00,2013-04-28 15:52:00,
2013-04-28 11:57:00,55.9,45.9,30.23,South,176,0.0,0.0,69,0.00,,,0.04,VWS V14.00,2013-04-28 15:57:00,
2013-04-28 12:02:00,55.8,45.8,30.23,South,176,0.0,0.0,69,0.00,,,0.04,VWS V14.00,2013-04-28 16:02:00,
2013-04-28 12:07:00,55.8,45.8,30.20,South,176,0.0,0.0,69,0.00,,,0.04,VWS V14.00,2013-04-28 16:07:00,
2013-04-28 12:12:00,55.6,45.6,30.20,South,176,0.0,0.0,69,0.08,,,0.12,VWS V14.00,2013-04-28 16:12:00,
2013-04-28 12:17:00,55.4,45.4,30.20,South,176,0.0,0.0,69,0.08,,,0.12,VWS V14.00,2013-04-28 16:17:00,
2013-04-28 12:22:00,55.4,45.4,30.20,South,176,0.0,0.0,69,0.08,,,0.12,VWS V14.00,2013-04-28 16:22:00,
2013-04-28 12:27:00,55.4,45.4,30.20,South,176,0.0,0.0,69,0.08,,,0.12,VWS V14.00,2013-04-28 16:27:00,
2013-04-28 12:32:00,55.4,45.4,30.20,NNE,31,0.0,0.0,69,0.08,,,0.12,VWS V14.00,2013-04-28 16:32:00,
2013-04-28 12:37:00,55.6,45.6,30.20,NNE,31,0.0,0.0,69,0.08,,,0.12,VWS V14.00,2013-04-28 16:37:00,
2013-04-28 12:42:00,55.6,45.6,30.20,NNE,31,0.0,0.0,69,0.08,,,0.12,VWS V14.00,2013-04-28 16:42:00,
2013-04-28 12:47:00,55.6,45.6,30.20,NNE,31,0.0,0.0,69,0.08,,,0.12,VWS V14.00,2013-04-28 16:47:00,
2013-04-28 12:52:00,55.8,46.1,30.20,NNE,31,0.0,0.0,70,0.08,,,0.12,VWS V14.00,2013-04-28 16:52:00,
2013-04-28 12:57:00,55.8,45.8,30.20,NNE,31,0.0,0.0,69,0.08,,,0.12,VWS V14.00,2013-04-28 16:57:00,
2013-04-28 13:02:00,55.8,45.8,30.20,NNE,31,0.0,0.0,69,0.12,,,0.16,VWS V14.00,2013-04-28 17:02:00,
2013-04-28 13:07:00,55.6,45.6,30.20,NNE,31,0.0,0.0,69,0.12,,,0.16,VWS V14.00,2013-04-28 17:07:00,
2013-04-28 13:12:00,55.4,45.4,30.20,NNE,31,0.0,0.0,69,0.12,,,0.16,VWS V14.00,2013-04-28 17:12:00,
2013-04-28 13:17:00,55.2,45.6,30.20,NNE,31,0.0,0.0,70,0.04,,,0.16,VWS V14.00,2013-04-28 17:17:00,
2013-04-28 13:22:00,55.2,45.6,30.20,NNE,31,0.0,0.0,70,0.04,,,0.16,VWS V14.00,2013-04-28 17:22:00,
2013-04-28 13:27:00,55.2,45.6,30.20,NNE,31,0.0,0.0,70,0.08,,,0.20,VWS V14.00,2013-04-28 17:27:00,
2013-04-28 13:33:00,55.0,45.5,30.20,NNE,31,0.0,0.0,70,0.08,,,0.20,VWS V14.00,2013-04-28 17:33:00,
2013-04-28 13:38:00,55.0,45.5,30.20,NNE,31,0.0,0.0,70,0.08,,,0.20,VWS V14.00,2013-04-28 17:38:00,
2013-04-28 13:43:00,55.0,45.5,30.20,NNE,31,0.0,0.0,70,0.08,,,0.20,VWS V14.00,2013-04-28 17:43:00,
2013-04-28 13:48:00,55.0,45.5,30.20,NNE,31,0.0,0.0,70,0.08,,,0.20,VWS V14.00,2013-04-28 17:48:00,
2013-04-28 13:53:00,55.0,45.5,30.20,NNE,31,0.0,0.0,70,0.12,,,0.24,VWS V14.00,2013-04-28 17:53:00,
2013-04-28 13:58:00,55.0,45.5,30.20,NNE,31,0.0,0.0,70,0.12,,,0.24,VWS V14.00,2013-04-28 17:58:00,
2013-04-28 14:03:00,54.9,45.3,30.20,NNE,31,0.0,0.0,70,0.08,,,0.24,VWS V14.00,2013-04-28 18:03:00,
2013-04-28 14:08:00,54.9,45.3,30.20,NNE,31,0.0,0.0,70,0.08,,,0.24,VWS V14.00,2013-04-28 18:08:00,
2013-04-28 14:13:00,54.9,45.3,30.20,NNE,31,0.0,0.0,70,0.08,,,0.24,VWS V14.00,2013-04-28 18:13:00,
2013-04-28 14:18:00,54.9,45.3,30.20,NNE,31,0.0,0.0,70,0.08,,,0.24,VWS V14.00,2013-04-28 18:18:00,
2013-04-28 14:23:00,55.0,45.8,30.20,NNE,31,0.0,0.0,71,0.08,,,0.24,VWS V14.00,2013-04-28 18:23:00,
2013-04-28 14:28:00,55.2,46.0,30.20,NNE,31,0.0,0.0,71,0.04,,,0.24,VWS V14.00,2013-04-28 18:28:00,
2013-04-28 14:33:00,55.4,45.8,30.20,NNE,31,0.0,0.0,70,0.04,,,0.24,VWS V14.00,2013-04-28 18:33:00,
2013-04-28 14:38:00,55.8,46.1,30.20,NNE,31,0.0,0.0,70,0.08,,,0.28,VWS V14.00,2013-04-28 18:38:00,
2013-04-28 14:43:00,55.9,46.3,30.20,NNE,31,0.0,0.0,70,0.08,,,0.28,VWS V14.00,2013-04-28 18:43:00,
2013-04-28 14:48:00,55.9,46.3,30.20,NNE,31,0.0,0.0,70,0.08,,,0.28,VWS V14.00,2013-04-28 18:48:00,
2013-04-28 14:53:00,55.8,46.1,30.20,NNE,31,0.0,0.0,70,0.04,,,0.28,VWS V14.00,2013-04-28 18:53:00,
2013-04-28 14:58:00,55.8,46.1,30.20,North,0,0.0,0.0,70,0.08,,,0.31,VWS V14.00,2013-04-28 18:58:00,
2013-04-28 15:03:00,55.6,45.6,30.20,North,0,0.0,0.0,69,0.08,,,0.31,VWS V14.00,2013-04-28 19:03:00,
2013-04-28 15:08:00,55.4,45.4,30.17,North,0,0.0,0.0,69,0.08,,,0.31,VWS V14.00,2013-04-28 19:08:00,
2013-04-28 15:13:00,55.4,45.4,30.17,North,0,0.0,0.0,69,0.08,,,0.31,VWS V14.00,2013-04-28 19:13:00,
2013-04-28 15:18:00,55.4,45.4,30.17,North,0,0.0,0.0,69,0.08,,,0.31,VWS V14.00,2013-04-28 19:18:00,
2013-04-28 15:23:00,55.4,45.4,30.17,NW,326,2.7,3.1,69,0.12,,,0.35,VWS V14.00,2013-04-28 19:23:00,
2013-04-28 15:28:00,55.2,45.2,30.17,NNW,332,0.0,0.0,69,0.12,,,0.35,VWS V14.00,2013-04-28 19:28:00,
2013-04-28 15:33:00,55.0,45.1,30.17,NNW,332,0.0,0.0,69,0.12,,,0.35,VWS V14.00,2013-04-28 19:33:00,
2013-04-28 15:38:00,55.0,45.1,30.17,NNW,332,0.0,0.0,69,0.08,,,0.35,VWS V14.00,2013-04-28 19:38:00,
2013-04-28 15:44:00,54.9,44.9,30.17,NNW,332,0.0,0.0,69,0.08,,,0.35,VWS V14.00,2013-04-28 19:44:00,
2013-04-28 15:48:00,54.9,44.9,30.17,NNW,332,0.0,0.0,69,0.12,,,0.39,VWS V14.00,2013-04-28 19:48:00,
2013-04-28 15:53:00,54.7,44.7,30.17,NNW,332,0.0,0.0,69,0.12,,,0.39,VWS V14.00,2013-04-28 19:53:00,
2013-04-28 15:58:00,54.7,44.7,30.17,NNW,332,0.0,0.0,69,0.08,,,0.39,VWS V14.00,2013-04-28 19:58:00,
2013-04-28 16:03:00,54.5,44.5,30.17,NNW,332,0.0,0.0,69,0.08,,,0.39,VWS V14.00,2013-04-28 20:03:00,
2013-04-28 16:09:00,54.3,44.4,30.17,NNW,332,0.0,0.0,69,0.08,,,0.39,VWS V14.00,2013-04-28 20:09:00,
2013-04-28 16:14:00,54.3,44.4,30.17,NNW,332,0.0,0.0,69,0.12,,,0.43,VWS V14.00,2013-04-28 20:14:00,
2013-04-28 16:19:00,54.3,44.4,30.17,NNW,332,0.0,0.0,69,0.12,,,0.43,VWS V14.00,2013-04-28 20:19:00,
2013-04-28 16:24:00,54.1,44.2,30.14,NNW,332,0.0,0.0,69,0.08,,,0.43,VWS V14.00,2013-04-28 20:24:00,
2013-04-28 16:29:00,54.1,44.2,30.14,NNW,332,0.0,0.0,69,0.08,,,0.43,VWS V14.00,2013-04-28 20:29:00,
2013-04-28 16:34:00,54.1,43.8,30.14,NNW,332,0.0,0.0,68,0.08,,,0.43,VWS V14.00,2013-04-28 20:34:00,
2013-04-28 16:39:00,54.0,44.0,30.14,NNW,332,0.0,0.0,69,0.12,,,0.47,VWS V14.00,2013-04-28 20:39:00,
2013-04-28 16:44:00,54.0,44.0,30.14,NNW,332,0.0,0.0,69,0.12,,,0.47,VWS V14.00,2013-04-28 20:44:00,
2013-04-28 16:49:00,53.8,43.9,30.14,NNW,332,0.0,0.0,69,0.08,,,0.47,VWS V14.00,2013-04-28 20:49:00,
2013-04-28 16:54:00,53.6,43.7,30.14,NNW,332,0.0,0.0,69,0.08,,,0.47,VWS V14.00,2013-04-28 20:54:00,
2013-04-28 16:59:00,53.6,43.7,30.14,NNW,332,0.0,0.0,69,0.08,,,0.47,VWS V14.00,2013-04-28 20:59:00,
2013-04-28 17:04:00,53.4,43.9,30.14,NNW,332,0.0,0.0,70,0.08,,,0.47,VWS V14.00,2013-04-28 21:04:00,
2013-04-28 17:09:00,53.6,43.7,30.14,NNW,332,0.0,0.0,69,0.12,,,0.51,VWS V14.00,2013-04-28 21:09:00,
2013-04-28 17:14:00,53.6,43.7,30.14,NNW,332,0.0,0.0,69,0.08,,,0.51,VWS V14.00,2013-04-28 21:14:00,
2013-04-28 17:19:00,53.4,43.9,30.14,NNW,332,0.0,0.0,70,0.08,,,0.51,VWS V14.00,2013-04-28 21:19:00,
2013-04-28 17:24:00,53.2,43.7,30.14,NNW,332,0.0,0.0,70,0.08,,,0.51,VWS V14.00,2013-04-28 21:24:00,
2013-04-28 17:29:00,53.4,43.9,30.14,NNW,332,0.0,0.0,70,0.12,,,0.55,VWS V14.00,2013-04-28 21:29:00,
2013-04-28 17:34:00,53.4,43.9,30.11,NNW,332,0.0,0.0,70,0.12,,,0.55,VWS V14.00,2013-04-28 21:34:00,
2013-04-28 17:39:00,53.2,43.7,30.11,NNW,332,0.0,0.0,70,0.08,,,0.55,VWS V14.00,2013-04-28 21:39:00,
2013-04-28 17:44:00,53.2,43.7,30.11,NNW,332,0.0,0.0,70,0.08,,,0.55,VWS V14.00,2013-04-28 21:44:00,
2013-04-28 17:49:00,53.2,43.7,30.11,NNW,332,0.0,0.0,70,0.08,,,0.55,VWS V14.00,2013-04-28 21:49:00,
2013-04-28 17:54:00,53.4,44.3,30.14,NNW,332,0.0,0.0,71,0.08,,,0.55,VWS V14.00,2013-04-28 21:54:00,
2013-04-28 17:59:00,53.4,44.3,30.14,NNW,332,0.0,0.0,71,0.12,,,0.59,VWS V14.00,2013-04-28 21:59:00,
2013-04-28 18:04:00,53.2,44.1,30.14,NNW,332,0.0,0.0,71,0.12,,,0.59,VWS V14.00,2013-04-28 22:04:00,
2013-04-28 18:09:00,53.2,44.1,30.14,NNW,332,0.0,0.0,71,0.08,,,0.59,VWS V14.00,2013-04-28 22:09:00,
2013-04-28 18:14:00,53.2,44.1,30.14,NNW,332,0.0,0.0,71,0.08,,,0.59,VWS V14.00,2013-04-28 22:14:00,
2013-04-28 18:19:00,53.2,44.1,30.11,NNW,332,0.0,2.7,71,0.12,,,0.63,VWS V14.00,2013-04-28 22:19:00,
2013-04-28 18:24:00,53.2,44.1,30.11,NNW,331,0.0,0.0,71,0.12,,,0.63,VWS V14.00,2013-04-28 22:24:00,
2013-04-28 18:29:00,53.2,44.1,30.11,NW,322,2.7,3.6,71,0.12,,,0.63,VWS V14.00,2013-04-28 22:29:00,
2013-04-28 18:34:00,53.2,44.1,30.11,NW,305,2.7,4.0,71,0.08,,,0.63,VWS V14.00,2013-04-28 22:34:00,
2013-04-28 18:39:00,53.2,44.5,30.11,NW,305,0.0,0.0,72,0.08,,,0.63,VWS V14.00,2013-04-28 22:39:00,
2013-04-28 18:44:00,53.2,44.5,30.11,NW,305,2.2,2.2,72,0.08,,,0.63,VWS V14.00,2013-04-28 22:44:00,
2013-04-28 18:49:00,53.2,44.5,30.11,WNW,303,4.0,4.0,72,0.08,,,0.63,VWS V14.00,2013-04-28 22:49:00,
2013-04-28 18:54:00,53.2,44.1,30.11,NW,305,3.6,3.6,71,0.08,,,0.63,VWS V14.00,2013-04-28 22:54:00,
2013-04-28 19:00:00,53.2,44.1,30.11,WNW,293,2.7,2.7,71,0.04,,,0.63,VWS V14.00,2013-04-28 23:00:00,
2013-04-28 19:05:00,53.2,44.1,30.11,NW,307,0.0,0.0,71,0.08,,,0.67,VWS V14.00,2013-04-28 23:05:00,
2013-04-28 19:10:00,53.2,44.1,30.11,NW,315,2.2,2.7,71,0.08,,,0.67,VWS V14.00,2013-04-28 23:10:00,
2013-04-28 19:15:00,53.1,43.9,30.11,NW,316,4.0,4.0,71,0.08,,,0.67,VWS V14.00,2013-04-28 23:15:00,
2013-04-28 19:20:00,53.1,43.9,30.08,NW,307,3.6,3.6,71,0.04,,,0.67,VWS V14.00,2013-04-28 23:20:00,
2013-04-28 19:25:00,53.1,43.9,30.08,WNW,300,4.0,4.0,71,0.04,,,0.67,VWS V14.00,2013-04-28 23:25:00,
2013-04-28 19:30:00,53.1,43.9,30.08,WNW,295,3.6,6.3,71,0.04,,,0.67,VWS V14.00,2013-04-28 23:30:00,
2013-04-28 19:35:00,53.1,43.9,30.08,NNW,328,4.9,4.9,71,0.04,,,0.67,VWS V14.00,2013-04-28 23:35:00,
2013-04-28 19:40:00,53.1,43.9,30.08,NNW,341,2.7,4.0,71,0.04,,,0.67,VWS V14.00,2013-04-28 23:40:00,
2013-04-28 19:45:00,53.1,43.9,30.08,NNW,331,3.1,5.4,71,0.04,,,0.67,VWS V14.00,2013-04-28 23:45:00,
2013-04-28 19:50:00,53.1,43.9,30.08,NW,315,2.7,4.5,71,0.04,,,0.67,VWS V14.00,2013-04-28 23:50:00,
2013-04-28 19:55:00,52.9,44.1,30.08,NNW,327,0.0,4.0,72,0.04,,,0.67,VWS V14.00,2013-04-28 23:55:00,
2013-04-28 20:00:00,52.9,44.1,30.08,NNW,336,3.6,3.6,72,0.08,,,0.71,VWS V14.00,2013-04-29 00:00:00,
2013-04-28 20:05:00,52.9,44.1,30.08,NW,310,4.0,4.0,72,0.04,,,0.71,VWS V14.00,2013-04-29 00:05:00,
2013-04-28 20:10:00,52.9,44.5,30.08,NNW,330,0.0,0.0,73,0.04,,,0.71,VWS V14.00,2013-04-29 00:10:00,
2013-04-28 20:15:00,52.9,44.5,30.08,NNE,32,0.0,0.0,73,0.04,,,0.71,VWS V14.00,2013-04-29 00:15:00,
2013-04-28 20:20:00,52.9,44.5,30.08,NE,38,0.0,0.0,73,0.04,,,0.71,VWS V14.00,2013-04-29 00:20:00,
2013-04-28 20:25:00,52.9,44.5,30.08,NNW,329,0.0,0.0,73,0.04,,,0.71,VWS V14.00,2013-04-29 00:25:00,
2013-04-28 20:31:00,52.9,44.8,30.08,NNE,18,0.0,0.0,74,0.04,,,0.71,VWS V14.00,2013-04-29 00:31:00,
2013-04-28 20:36:00,52.9,44.8,30.08,West,268,0.0,0.0,74,0.04,,,0.71,VWS V14.00,2013-04-29 00:36:00,
2013-04-28 20:41:00,52.7,44.7,30.08,South,191,0.0,0.0,74,0.04,,,0.71,VWS V14.00,2013-04-29 00:41:00,
2013-04-28 20:46:00,52.7,44.7,30.08,South,170,0.0,0.0,74,0.04,,,0.71,VWS V14.00,2013-04-29 00:46:00,
2013-04-28 20:51:00,52.7,44.7,30.08,South,170,0.0,0.0,74,0.04,,,0.71,VWS V14.00,2013-04-29 00:51:00,
2013-04-28 20:56:00,52.7,44.7,30.08,NNW,329,0.0,0.0,74,0.04,,,0.71,VWS V14.00,2013-04-29 00:56:00,
2013-04-28 21:01:00,52.7,44.7,30.08,NNW,333,0.0,0.0,74,0.00,,,0.71,VWS V14.00,2013-04-29 01:01:00,
2013-04-28 21:06:00,52.7,44.7,30.08,NNW,335,0.0,0.0,74,0.00,,,0.71,VWS V14.00,2013-04-29 01:06:00,
2013-04-28 21:11:00,52.7,44.7,30.08,North,3,0.0,0.0,74,0.00,,,0.71,VWS V14.00,2013-04-29 01:11:00,
2013-04-28 21:16:00,52.7,44.7,30.08,NW,322,0.0,0.0,74,0.00,,,0.71,VWS V14.00,2013-04-29 01:16:00,
2013-04-28 21:21:00,52.7,44.7,30.08,NNW,343,0.0,0.0,74,0.00,,,0.71,VWS V14.00,2013-04-29 01:21:00,
2013-04-28 21:26:00,52.9,45.2,30.08,NNW,343,0.0,0.0,75,0.00,,,0.71,VWS V14.00,2013-04-29 01:26:00,
2013-04-28 21:31:00,52.9,44.8,30.08,ENE,65,0.0,0.0,74,0.00,,,0.71,VWS V14.00,2013-04-29 01:31:00,
2013-04-28 21:36:00,52.9,45.2,30.08,NE,36,0.0,0.0,75,0.00,,,0.71,VWS V14.00,2013-04-29 01:36:00,
2013-04-28 21:41:00,52.9,45.2,30.08,NE,36,0.0,0.0,75,0.00,,,0.71,VWS V14.00,2013-04-29 01:41:00,
2013-04-28 21:46:00,52.9,45.2,30.08,NE,36,0.0,0.0,75,0.00,,,0.71,VWS V14.00,2013-04-29 01:46:00,
2013-04-28 21:51:00,52.9,45.2,30.08,SW,231,0.0,3.6,75,0.00,,,0.71,VWS V14.00,2013-04-29 01:51:00,
2013-04-28 21:56:00,52.9,45.2,30.08,NNW,331,3.6,4.5,75,0.00,,,0.71,VWS V14.00,2013-04-29 01:56:00,
2013-04-28 22:01:00,52.9,45.2,30.08,NW,318,0.0,0.0,75,0.00,,,0.71,VWS V14.00,2013-04-29 02:01:00,
2013-04-28 22:07:00,52.9,45.2,30.08,NW,318,0.0,0.0,75,0.00,,,0.71,VWS V14.00,2013-04-29 02:07:00,
2013-04-28 22:12:00,53.1,45.4,30.08,NW,320,0.0,0.0,75,0.00,,,0.71,VWS V14.00,2013-04-29 02:12:00,
2013-04-28 22:17:00,53.1,45.4,30.08,NW,314,0.0,0.0,75,0.00,,,0.71,VWS V14.00,2013-04-29 02:17:00,
2013-04-28 22:22:00,53.1,45.4,30.05,ENE,74,0.0,0.0,75,0.00,,,0.71,VWS V14.00,2013-04-29 02:22:00,
2013-04-28 22:27:00,53.1,45.4,30.05,West,267,0.0,0.0,75,0.00,,,0.71,VWS V14.00,2013-04-29 02:27:00,
2013-04-28 22:32:00,53.1,45.4,30.05,NW,304,0.0,0.0,75,0.00,,,0.71,VWS V14.00,2013-04-29 02:32:00,
2013-04-28 22:37:00,53.1,45.4,30.05,NW,321,0.0,0.0,75,0.00,,,0.71,VWS V14.00,2013-04-29 02:37:00,
2013-04-28 22:42:00,53.1,45.4,30.05,North,0,0.0,0.0,75,0.00,,,0.71,VWS V14.00,2013-04-29 02:42:00,
2013-04-28 22:47:00,53.2,45.9,30.05,ESE,113,0.0,0.0,76,0.00,,,0.71,VWS V14.00,2013-04-29 02:47:00,
2013-04-28 22:52:00,53.2,45.9,30.08,ESE,122,0.0,0.0,76,0.00,,,0.71,VWS V14.00,2013-04-29 02:52:00,
2013-04-28 22:57:00,53.2,45.9,30.08,SSE,167,0.0,0.0,76,0.00,,,0.71,VWS V14.00,2013-04-29 02:57:00,
2013-04-28 23:02:00,53.2,45.9,30.08,SSE,167,0.0,0.0,76,0.00,,,0.71,VWS V14.00,2013-04-29 03:02:00,
2013-04-28 23:07:00,53.4,46.4,30.05,SSE,167,0.0,0.0,77,0.00,,,0.71,VWS V14.00,2013-04-29 03:07:00,
2013-04-28 23:12:00,53.4,46.4,30.05,North,353,0.0,3.1,77,0.00,,,0.71,VWS V14.00,2013-04-29 03:12:00,
2013-04-28 23:17:00,53.4,46.4,30.05,North,3,2.7,3.1,77,0.00,,,0.71,VWS V14.00,2013-04-29 03:17:00,
2013-04-28 23:22:00,53.6,46.6,30.05,North,357,0.0,0.0,77,0.00,,,0.71,VWS V14.00,2013-04-29 03:22:00,
2013-04-28 23:27:00,53.8,47.1,30.05,SE,130,0.0,0.0,78,0.00,,,0.71,VWS V14.00,2013-04-29 03:27:00,
2013-04-28 23:32:00,53.8,47.1,30.05,SE,130,0.0,0.0,78,0.04,,,0.75,VWS V14.00,2013-04-29 03:32:00,
2013-04-28 23:37:00,53.8,47.1,30.05,ESE,117,0.0,0.0,78,0.04,,,0.75,VWS V14.00,2013-04-29 03:37:00,
2013-04-28 23:42:00,53.8,47.4,30.05,SW,227,0.0,0.0,79,0.04,,,0.75,VWS V14.00,2013-04-29 03:42:00,
2013-04-28 23:48:00,53.8,47.4,30.05,NW,305,0.0,0.0,79,0.04,,,0.75,VWS V14.00,2013-04-29 03:48:00,
2013-04-28 23:53:00,53.8,47.4,30.05,NW,304,0.0,0.0,79,0.04,,,0.75,VWS V14.00,2013-04-29 03:53:00,
2013-04-28 23:58:00,53.8,47.4,30.05,North,0,0.0,0.0,79,0.04,,,0.75,VWS V14.00,2013-04-29 03:58:00,